Regional Weather Roundup
Issued by NWS

Home | Current Version | Previous Version | Graphics & Text | Print | Product List | Glossary On
Versions: 1 2 3 4 5 6 7 8 9 10 11 12 13 14 15 16 17 18 19 20 21 22 23 24 25 26 27 28 29 30 31 32 33 34 35 36 37 38 39 40 41 42 43 44 45 46 47 48 49 50
000
ASUS43 KTOP 221508
RWRKS

WEATHER ROUNDUP FOR KANSAS
NATIONAL WEATHER SERVICE GOODLAND KS
900 AM CST SAT NOV 22 2014

NOTE:  "FAIR" INDICATES FEW OR NO CLOUDS BELOW 12,000 FEET WITH NO
SIGNIFICANT WEATHER AND/OR OBSTRUCTIONS TO VISIBILITY.

KSZ001>006-013>018-027>032-041>047-221600-
NORTHWEST KANSAS

CITY           SKY/WX    TMP DP  RH WIND       PRES   REMARKS
GOODLAND       SUNNY     47  22  37 SW12      29.81F
HAYS           SUNNY     34  28  80 SW9       29.87S
HILL CITY      SUNNY     32  26  78 S3        29.83F
RUSSELL        SUNNY     35  35 100 S12       29.86F FOG     WCI  27
$$

KSZ061>065-074>080-084>089-221600-
SOUTHWEST KANSAS

CITY           SKY/WX    TMP DP  RH WIND       PRES   REMARKS
DODGE CITY     SUNNY     39  33  79 SW13      29.87F WCI  31
ELKHART          N/A    N/A N/A N/A MISG        N/A
GARDEN CITY    SUNNY     32  29  88 W6        29.85F
GREAT BEND     SUNNY     36  32  87 S14       29.91S WCI  27
LIBERAL        SUNNY     36  30  80 SW6       29.90F
PRATT          FOG       46  45  93 SW12      29.91F VSB 1/4
$$

KSZ066>073-081>083-090>101-221600-
SOUTHEAST KANSAS

CITY           SKY/WX    TMP DP  RH WIND       PRES   REMARKS
CHANUTE        CLOUDY    55  54  96 S16G24    30.00F
COFFEYVILLE    CLOUDY    56  52  86 S17G25    30.01S
HUTCHINSON     FOG       46  44  93 S6        29.94S VSB 3/4
MEDICINE LODGE   N/A     42  42 100 SE3       29.94F
NEWTON         CLOUDY    45  41  87 S9        29.96F VSB 1/4
PARSONS        CLOUDY    56  53  90 S10       30.02S
WICHITA INTL   DRZL/FOG  45  45 100 S3        29.95F VSB 1/8
WICHITA JABRA  FOG       46  46 100 S5        29.95F VSB 1/2
WICHITA MCCONL FOG       46  45  93 SE2       29.96S VSB 1/4
WINFIELD       CLOUDY    57  57 100 S14       29.97S FOG
$$

KSZ007>012-019>026-033>040-048>060-102>105-221600-
NORTHEAST KANSAS

CITY           SKY/WX    TMP DP  RH WIND       PRES   REMARKS
CONCORDIA      FOG       39  39 100 SW10      29.89S VSB 1/4 WCI  32
EMPORIA        FOG       53  53 100 S15       29.95S VSB 1/4
LAWRENCE       CLOUDY    54  53  97 S12       29.96S FOG
MANHATTAN      CLOUDY    47  46  97 S12       29.93S FOG
MARYSVILLE     FOG       41  41 100 SW10      29.90S VSB 3/4
OLATHE IND     CLOUDY    53  53 100 S13       29.98R FOG
OLATHE EXE     CLOUDY    54  54 100 S15       29.97R FOG
SALINA         CLOUDY    46  43  89 S10       29.92F FOG
TOPEKA BILLARD FOG       51  51 100 SW6       29.95S VSB 1/2
TOPEKA FORBES  FOG       51  49  92 S6        29.95S VSB 1/4
$$



USA.gov is the U.S. government's official web portal to all federal, state and local government web resources and services.